This demonstration page uses our WeatherBlox Daily Observations layout. Learn more.

Left ArrowRight Arrow

Hourly Observations for August 27, 2021

Temp ( °F °C ) Dew Point ( °F °C ) Humidity (%) Winds ( mph kmh ) Pressure ( in mb ) Visibility ( mi km ) Precip ( " mm )
12:56 am 00:56 Clear 72 22.2 64 17.8 76 76 S 8 13 29.83 1010 10 16 0.00 0.00
1:56 am 01:56 Clear 71 21.7 63 17.2 76 76 S 9 15 29.82 1010 10 16 0.00 0.00
2:56 am 02:56 Clear 68 20 64 17.8 87 87 SSE 3 6 29.83 1010 10 16 0.00 0.00
3:56 am 03:56 Clear 66 18.9 64 17.8 93 93 ESE 6 9 29.81 1010 10 16 0.00 0.00
4:56 am 04:56 Clear 71 21.7 65 18.3 81 81 SSW 12 19 29.80 1009 10 16 0.00 0.00
5:56 am 05:56 Clear 73 22.8 65 18.3 76 76 S 10 17 29.78 1009 10 16 0.00 0.00
6:56 am 06:56 Clear 71 21.7 65 18.3 81 81 S 7 11 29.78 1009 10 16 0.00 0.00
7:56 am 07:56 Sunny 73 22.8 65 18.3 76 76 S 9 15 29.78 1009 10 16 0.00 0.00
8:56 am 08:56 Sunny 74 23.3 66 18.9 76 76 SW 15 24 29.82 1010 10 16 0.00 0.00
9:56 am 09:56 Sunny 75 23.9 66 18.9 74 74 WSW 10 17 29.82 1010 10 16 0.00 0.00
10:56 am 10:56 Sunny 78 25.6 64 17.8 62 62 WSW 9 15 29.83 1010 10 16 0.00 0.00
11:56 am 11:56 Sunny 84 28.9 65 18.3 53 53 SW 12 19 29.82 1010 10 16 0.00 0.00
12:56 pm 12:56 Sunny 86 30 67 19.4 53 53 SW 12 19 29.82 1010 10 16 0.00 0.00
1:56 pm 13:56 Sunny 87 30.6 68 20 53 53 SW 13 20 29.81 1010 10 16 0.00 0.00
2:56 pm 14:56 Sunny 89 31.7 64 17.8 43 43 SW 14 22 29.81 1010 10 16 0.00 0.00
3:56 pm 15:56 Sunny 91 32.8 64 17.8 41 41 SSW 10 17 29.80 1009 10 16 0.00 0.00
4:56 pm 16:56 Sunny 90 32.2 65 18.3 44 44 S 10 17 29.78 1009 10 16 0.00 0.00
5:56 pm 17:56 Sunny 91 32.8 66 18.9 44 44 S 5 7 29.77 1008 10 16 0.00 0.00
6:56 pm 18:56 Sunny 88 31.1 70 21.1 55 55 ESE 7 11 29.78 1008 10 16 0.00 0.00
7:56 pm 19:56 Mostly Cloudy 84 28.9 70 21.1 63 63 undefined N/A 29.79 1009 10 16 0.00 0.00
8:56 pm 20:56 Partly Cloudy 81 27.2 70 21.1 69 69 ESE 12 19 29.80 1009 10 16 0.00 0.00
9:56 pm 21:56 Mostly Cloudy 77 25 68 20 74 74 SE 10 17 29.82 1010 10 16 0.00 0.00
10:56 pm 22:56 Mostly Clear 73 22.8 68 20 84 84 SE 6 9 29.82 1010 10 16 0.00 0.00
11:56 pm 23:56 Clear 73 22.8 68 20 84 84 S 6 9 29.82 1010 10 16 0.00 0.00

Powered by AerisWeather